(196931) = 1995 DF4 = 2003 UF12

Discovered at Kitt Peak on 2003-10-20 by Spacewatch.

Orbit

Orbit type: Main Belt

Note: WebGL enabled browser required.

epoch2024-03-31.0
epoch JD2460400.5
perihelion date2023-03-11.48187
perihelion JD2460014.98187
argument of perihelion (°)209.46274
ascending node (°)207.40434
inclination (°)1.38476
eccentricity0.2269521
perihelion distance (AU)2.2020016
Tisserand w.r.t. Jupiter3.3
ΔV w.r.t. Earth (km/sec)9.4
semimajor axis (AU)2.8484673
mean anomaly (°)79.03724
mean daily motion (°/day)0.20501560
aphelion distance (AU)3.495
period (years)4.81
P-vector [x]0.54664926
P-vector [y]0.77291503
P-vector [z]0.32214428
Q-vector [x]-0.83728780
Q-vector [y]0.50964272
Q-vector [z]0.19802380
absolute magnitude16.84
phase slope0.15
uncertainty0
referenceMPEC 2024-E109
observations used397
oppositions13
arc length (days)10619
first opposition used1995
last opposition used2024
residual rms (arc-secs)0.72
perturbers coarse indicatorM-v
perturbers precise indicator003Ek
first observation date used1995-02-08.0
last observation date used2024-03-06.0
computer nameMPCLINUX
JD of orbit computation2456700.352189
perihelion JD uncertainty (days)1.1924E-04
argument of perihelion uncertainty (°)2.5695E-04
ascending node uncertainty (°)2.5276E-04
inclination uncertainty (°)5.4266E-06
eccentricity uncertainty 1.2568E-07
perihelion distance uncertainty (AU)3.5058E-07
Minimum Orbit Intersection Distances (in AU)
for orbit epoch: 2460400.5, reference: E2024-FB1
Mercury1.88986
Venus1.47997
Earth1.21441
Mars0.69059
Jupiter1.86337
Saturn6.40069
Uranus15.2521
Neptune27.0972

Observations

402 total observations over interval: 1995 02 08.42586 – 2024 03 06.369446
These data are available for download (format description).

Date (UT) J2000 RA J2000 Dec Magn Location Ref
1995 02 08.42586 09 29 41.07 +12 40 23.6   691 – Steward Observatory, Kitt Peak-Spacewatch MPS 90355
1995 02 08.44754 09 29 39.81 +12 40 27.3 20.3 V 691 – Steward Observatory, Kitt Peak-Spacewatch MPS 90355
1995 02 08.46940 09 29 38.56 +12 40 33.1   691 – Steward Observatory, Kitt Peak-Spacewatch MPS 90355
1995 02 21.25424 09 18 34.68 +13 38 08.4 20.7 V 691 – Steward Observatory, Kitt Peak-Spacewatch MPC 24997
1995 02 21.28958 09 18 32.89 +13 38 17.3   691 – Steward Observatory, Kitt Peak-Spacewatch MPC 24997
1995 02 21.31289 09 18 31.74 +13 38 22.9   691 – Steward Observatory, Kitt Peak-Spacewatch MPC 24997
1995 03 01.22970 09 12 43.49 +14 09 37.7 20.5 V 691 – Steward Observatory, Kitt Peak-Spacewatch MPC 24997
1995 03 01.25184 09 12 42.52 +14 09 40.5   691 – Steward Observatory, Kitt Peak-Spacewatch MPC 24997
1995 03 01.27395 09 12 41.62 +14 09 46.1   691 – Steward Observatory, Kitt Peak-Spacewatch MPC 24997
2000 03 03.27275 10 37 10.38 +07 02 22.3 18.6   704 – Lincoln Laboratory ETS, New Mexico MPS 90580
2000 03 03.28597 10 37 09.69 +07 02 26.9 19.0   704 – Lincoln Laboratory ETS, New Mexico MPS 90580
2000 03 03.31240 10 37 08.26 +07 02 36.0 18.9   704 – Lincoln Laboratory ETS, New Mexico MPS 90580
2003 10 20.38771 03 02 06.99 +16 43 23.1 19.9 V 291 – LPL/Spacewatch II MPS 88328
2003 10 20.41279 03 02 06.00 +16 43 17.8 19.8 V 291 – LPL/Spacewatch II MPS 88328
2003 10 20.43741 03 02 05.04 +16 43 12.3 19.9 V 291 – LPL/Spacewatch II MPS 88328
2003 10 22.24050 03 00 55.50 +16 36 39.6 19.2 R 460 – Area 52 Observatory, Nashville MPS 88328
2003 10 22.25358 03 00 54.94 +16 36 36.3 19.6 R 460 – Area 52 Observatory, Nashville MPS 88328
2003 10 22.44172 03 00 47.04 +16 35 54.4 19.9 V 691 – Steward Observatory, Kitt Peak-Spacewatch MPS 88328
2003 10 22.46822 03 00 45.93 +16 35 48.2 19.9 V 691 – Steward Observatory, Kitt Peak-Spacewatch MPS 88328
2003 10 22.49488 03 00 44.80 +16 35 41.9 20.1 V 691 – Steward Observatory, Kitt Peak-Spacewatch MPS 88328
2003 10 23.21372 03 00 16.17 +16 32 58.7 20.5 R 460 – Area 52 Observatory, Nashville MPS 88328
2003 10 23.22245 03 00 15.77 +16 32 56.2 19.3 R 460 – Area 52 Observatory, Nashville MPS 88328
2003 10 23.33249 03 00 11.03 +16 32 32.0 19.1   704 – Lincoln Laboratory ETS, New Mexico MPS 88328
2003 10 23.34482 03 00 10.49 +16 32 30.1 19.4   704 – Lincoln Laboratory ETS, New Mexico MPS 88328
2003 10 23.35779 03 00 09.90 +16 32 26.9 19.3   704 – Lincoln Laboratory ETS, New Mexico MPS 88328
2003 10 23.37032 03 00 09.46 +16 32 22.9 19.9   704 – Lincoln Laboratory ETS, New Mexico MPS 88328
2003 10 23.38274 03 00 08.87 +16 32 20.6 19.8   704 – Lincoln Laboratory ETS, New Mexico MPS 88328
2003 10 28.13573 02 56 41.21 +16 13 11.3 19.3 R 460 – Area 52 Observatory, Nashville MPS 89592
2003 10 28.14442 02 56 40.80 +16 13 09.1 19.5 R 460 – Area 52 Observatory, Nashville MPS 89592
2003 10 28.26443 02 56 35.13 +16 12 38.9 19.0   704 – Lincoln Laboratory ETS, New Mexico MPS 89592
2003 10 28.27976 02 56 34.38 +16 12 34.9 19.4   704 – Lincoln Laboratory ETS, New Mexico MPS 89592
2003 10 28.29212 02 56 33.77 +16 12 32.3 20.1   704 – Lincoln Laboratory ETS, New Mexico MPS 89592
2003 10 28.30451 02 56 33.15 +16 12 28.8 19.2   704 – Lincoln Laboratory ETS, New Mexico MPS 89592
2003 11 01.29176 02 53 23.64 +15 55 13.9 20.4 C 704 – Lincoln Laboratory ETS, New Mexico MPS 289785
2003 11 01.30412 02 53 23.00 +15 55 08.4 19.3 C 704 – Lincoln Laboratory ETS, New Mexico MPS 289785
2003 11 01.31638 02 53 22.31 +15 55 06.2 19.2 C 704 – Lincoln Laboratory ETS, New Mexico MPS 289785
2003 11 02.24915 02 52 36.94 +15 50 55.5 19.2 C 704 – Lincoln Laboratory ETS, New Mexico MPS 291424
2003 11 02.27325 02 52 35.76 +15 50 49.8 18.9 C 704 – Lincoln Laboratory ETS, New Mexico MPS 291424
2003 11 02.29781 02 52 34.39 +15 50 41.7 19.2 C 704 – Lincoln Laboratory ETS, New Mexico MPS 291424
2003 11 03.26403 02 51 46.85 +15 46 22.2 19.4   704 – Lincoln Laboratory ETS, New Mexico MPS 90580
2003 11 03.27629 02 51 46.23 +15 46 19.8 19.6   704 – Lincoln Laboratory ETS, New Mexico MPS 90580
2003 11 03.28875 02 51 45.64 +15 46 16.4 19.7   704 – Lincoln Laboratory ETS, New Mexico MPS 90580
2003 11 03.30087 02 51 44.93 +15 46 13.3 19.3   704 – Lincoln Laboratory ETS, New Mexico MPS 90580
2003 11 18.24015 02 39 36.20 +14 39 11.8 19.2   644 – Palomar Mountain/NEAT MPS 91033
2003 11 18.26235 02 39 35.14 +14 39 06.1 19.1   644 – Palomar Mountain/NEAT MPS 91033
2003 11 18.28214 02 39 34.21 +14 39 01.0 19.0   644 – Palomar Mountain/NEAT MPS 91033
2003 11 20.16999 02 38 10.97 +14 31 12.5 19.7 V 691 – Steward Observatory, Kitt Peak-Spacewatch MPS 91033
2003 11 20.19869 02 38 09.67 +14 31 05.7 19.8 V 691 – Steward Observatory, Kitt Peak-Spacewatch MPS 91033
2003 11 20.22589 02 38 08.41 +14 30 59.0 19.6 V 691 – Steward Observatory, Kitt Peak-Spacewatch MPS 91033
2003 11 21.20276 02 37 26.67 +14 27 04.1 19.5   704 – Lincoln Laboratory ETS, New Mexico MPS 91858
2003 11 21.21583 02 37 26.17 +14 27 00.4 19.6   704 – Lincoln Laboratory ETS, New Mexico MPS 91858
2003 11 21.22895 02 37 25.52 +14 26 58.1 20.0   704 – Lincoln Laboratory ETS, New Mexico MPS 91858
2003 11 21.24192 02 37 24.99 +14 26 54.3 19.7   704 – Lincoln Laboratory ETS, New Mexico MPS 91858
2003 11 21.25472 02 37 24.39 +14 26 51.3 19.8   704 – Lincoln Laboratory ETS, New Mexico MPS 91858
2003 11 30.09983 02 32 02.11 +13 56 02.0 20.0 V 291 – LPL/Spacewatch II MPS 92757
2003 11 30.12373 02 32 01.32 +13 55 58.0 20.1 V 291 – LPL/Spacewatch II MPS 92757
2003 11 30.14751 02 32 00.56 +13 55 53.9 20.0 V 291 – LPL/Spacewatch II MPS 92757
2003 12 01.20627 02 31 29.53 +13 52 52.4 19.3   704 – Lincoln Laboratory ETS, New Mexico MPS 92757
2003 12 01.21920 02 31 29.14 +13 52 49.8 20.1   704 – Lincoln Laboratory ETS, New Mexico MPS 92757
2003 12 01.24516 02 31 28.29 +13 52 46.6 20.3   704 – Lincoln Laboratory ETS, New Mexico MPS 92757
2005 03 03.27295 11 47 42.42 +00 03 23.5 21.6 V 691 – Steward Observatory, Kitt Peak-Spacewatch MPS 127185
2005 03 03.29897 11 47 41.21 +00 03 32.5 21.3 V 691 – Steward Observatory, Kitt Peak-Spacewatch MPS 127185
2005 03 03.32599 11 47 39.91 +00 03 40.6 21.3 V 691 – Steward Observatory, Kitt Peak-Spacewatch MPS 127185
2005 03 09.17720 11 43 01.64 +00 35 18.1 21.2 V 691 – Steward Observatory, Kitt Peak-Spacewatch MPS 127962
2005 03 09.23101 11 42 58.91 +00 35 36.7 21.0 V 691 – Steward Observatory, Kitt Peak-Spacewatch MPS 127962
2005 03 09.25714 11 42 57.66 +00 35 44.9 21.0 V 691 – Steward Observatory, Kitt Peak-Spacewatch MPS 127962
2005 03 11.31122 11 41 17.42 +00 47 11.1 20.4 R G96 – Mt. Lemmon Survey MPS 127962
2005 03 11.31790 11 41 17.07 +00 47 13.5 20.3 R G96 – Mt. Lemmon Survey MPS 127962
2005 03 11.32454 11 41 16.78 +00 47 15.2 19.9 R G96 – Mt. Lemmon Survey MPS 127962
2005 03 11.33125 11 41 16.41 +00 47 17.8 20.1 R G96 – Mt. Lemmon Survey MPS 127962
2005 03 16.36054 11 37 10.52 +01 15 33.7 20.3 R G96 – Mt. Lemmon Survey MPS 129076
2005 03 16.36831 11 37 10.12 +01 15 36.4 20.4 R G96 – Mt. Lemmon Survey MPS 129076
2005 03 16.37605 11 37 09.71 +01 15 39.5 20.2 R G96 – Mt. Lemmon Survey MPS 129076
2005 03 16.38380 11 37 09.32 +01 15 42.1 20.7 R G96 – Mt. Lemmon Survey MPS 129076
2005 04 06.25010 11 22 01.65 +03 02 38.0 20.1 R G96 – Mt. Lemmon Survey MPS 130733
2005 04 06.25610 11 22 01.49 +03 02 40.5 20.6 R G96 – Mt. Lemmon Survey MPS 130733
2005 04 06.26207 11 22 01.27 +03 02 42.1 21.1 R G96 – Mt. Lemmon Survey MPS 130733
2005 04 06.26810 11 22 01.01 +03 02 43.3 20.3 R G96 – Mt. Lemmon Survey MPS 130733
2006 05 19.27951 15 41 23.42 -18 38 10.2 21.5 V G96 – Mt. Lemmon Survey MPS 172007
2006 05 19.28774 15 41 22.99 -18 38 08.9 21.8 V G96 – Mt. Lemmon Survey MPS 172007
2006 05 19.29601 15 41 22.59 -18 38 07.2 21.6 V G96 – Mt. Lemmon Survey MPS 172007
2006 05 19.30428 15 41 22.16 -18 38 05.0 21.8 V G96 – Mt. Lemmon Survey MPS 172007
2008 09 07.43124 04 44 21.55 +21 48 47.5 20.8 V G96 – Mt. Lemmon Survey MPS 255818
2008 09 07.43169 04 44 21.51 +21 48 47.4 20.8 V G96 – Mt. Lemmon Survey MPS 255818
2008 09 07.43565 04 44 21.87 +21 48 47.6 20.9 V G96 – Mt. Lemmon Survey MPS 255818
2008 09 07.43608 04 44 21.87 +21 48 48.1 20.4 V G96 – Mt. Lemmon Survey MPS 255818
